This is the latest recevied weather packets stored in our database for station/object N5PRN. If no packets are shown the sender has not sent any weather packets the latest 10 day(s).
| Time | Temp. | Humidity | Pressure | Rain* | Wind** | Luminosity | Snow |
|---|---|---|---|---|---|---|---|
| 1777656621 | 12.78° C | 96% | 1015.6 hPa | 1.27 mm | - | 105 W/m² | - |
| 1777656316 | 13.33° C | 96% | 1015.4 hPa | 1.27 mm | - | 89 W/m² | - |
| 1777656012 | 12.78° C | 96% | 1015.7 hPa | 1.78 mm | - | 102 W/m² | - |
| 1777655708 | 12.78° C | 96% | 1015.8 hPa | 1.78 mm | - | 139 W/m² | - |
| 1777655405 | 13.33° C | 96% | 1015.8 hPa | 1.27 mm | - | 62 W/m² | - |
| 1777655102 | 13.33° C | 96% | 1015.9 hPa | 3.05 mm | - | 75 W/m² | - |
| 1777654799 | 13.33° C | 96% | 1015.9 hPa | 1.78 mm | - | 63 W/m² | - |
| 1777654497 | 13.33° C | 96% | 1015.9 hPa | 3.05 mm | - | 102 W/m² | - |
| 1777654195 | 13.33° C | 96% | 1015.8 hPa | 3.05 mm | - | 51 W/m² | - |
| 1777653893 | 13.33° C | 96% | 1016 hPa | 1.78 mm | - | 58 W/m² | - |
| 1777653589 | 13.33° C | 96% | 1016.1 hPa | 1.27 mm | - | 70 W/m² | - |
| 1777653284 | 13.33° C | 96% | 1015.8 hPa | 1.78 mm | - | 70 W/m² | - |
| 1777652981 | 13.33° C | 96% | 1015.8 hPa | 1.78 mm | - | 57 W/m² | - |
| 1777652678 | 13.33° C | 96% | 1015.6 hPa | 1.78 mm | - | 78 W/m² | - |
| 1777652375 | 13.33° C | 96% | 1015.6 hPa | 1.78 mm | - | 80 W/m² | - |
| 1777652072 | 13.33° C | 96% | 1015.2 hPa | 3.05 mm | - | 76 W/m² | - |
| 1777651769 | 13.33° C | 96% | 1015.2 hPa | 1.27 mm | - | 77 W/m² | - |
| 1777651465 | 13.33° C | 96% | 1015 hPa | 1.78 mm | - | 70 W/m² | - |
| 1777651163 | 13.33° C | 96% | 1014.9 hPa | 3.05 mm | - | 76 W/m² | - |
| 1777650860 | 13.33° C | 96% | 1014.9 hPa | 3.05 mm | - | 59 W/m² | - |
| 1777650556 | 13.33° C | 96% | 1015 hPa | 3.05 mm | - | 57 W/m² | - |
| 1777650254 | 13.33° C | 96% | 1015.2 hPa | 3.05 mm | - | 43 W/m² | - |
| 1777649951 | 13.33° C | 96% | 1015.4 hPa | 4.32 mm | - | 58 W/m² | - |
| 1777649649 | 13.33° C | 96% | 1015.3 hPa | 6.1 mm | - | 51 W/m² | - |
| 1777649343 | 13.33° C | 96% | 1015.5 hPa | 6.6 mm | - | 42 W/m² | - |
* Rain latest hour (hover to see other rain measurements)
** Current wind speed in m/s (hover to see current wind gust speed)